FW4541 Weather Reports


time (UTC)temp
F
wind
direction
speed
knots
gust
knots
rain 1hr
in
rain 24hr
in
rain mn
in
humidity
%
barometer
mb
20260505152540 73 131 0.0 0.9 0.00 0.00 0.00 60 1016.5
20260505152036 72 132 0.9 1.7 0.00 0.00 0.00 60 1016.6
20260505151531 72 110 1.7 1.7 0.00 0.00 0.00 62 1016.6
20260505151029 72 97 1.7 2.6 0.00 0.00 0.00 63 1016.8
20260505150525 72 129 0.9 0.9 0.00 0.00 0.00 65 1016.9
20260505140450 65 120 0.9 5.2 0.00 0.00 0.00 75 1016.7
20260505124903 58 124 0.0 0.0 0.00 0.00 0.00 87 1016.4
20260505124401 57 121 0.0 0.0 0.00 0.00 0.00 89 1016.6
20260505123856 57 123 0.0 0.0 0.00 0.00 0.00 90 1016.4
20260505123353 56 122 0.0 0.0 0.00 0.00 0.00 92 1016.6
20260505122849 55 118 0.0 0.0 0.00 0.00 0.00 94 1016.4
20260505122347 54 117 0.0 0.0 0.00 0.00 0.00 97 1016.5
20260505121843 54 117 0.0 0.0 0.00 0.00 0.00 98 1016.4
20260505121340 53 117 0.0 0.0 0.00 0.00 0.00 98 1016.3
20260505120836 52 117 0.0 0.0 0.00 0.00 0.00 98 1016.3
20260505120332 51 117 0.0 0.0 0.00 0.00 0.00 99 1016.4
20260505115831 50 114 0.0 0.0 0.00 0.00 0.00 99 1016.1
20260505115329 50 113 0.0 0.0 0.00 0.00 0.00 98 1016.2
20260505114826 50 114 0.0 0.0 0.00 0.00 0.00 98 1016.1
20260505114323 49 114 0.0 0.0 0.00 0.00 0.00 98 1015.9
20260505113819 49 114 0.0 0.0 0.00 0.00 0.00 98 1016.2
20260505113315 48 113 0.0 0.0 0.00 0.00 0.00 98 1016.0
20260505112811 48 113 0.0 0.0 0.00 0.00 0.00 98 1016.0
20260505112309 48 113 0.0 0.0 0.00 0.00 0.00 98 1015.7
20260505111805 48 114 0.0 0.0 0.00 0.00 0.00 98 1015.8
20260505111300 48 114 0.0 0.0 0.00 0.00 0.00 98 1015.7
20260505110756 48 114 0.0 0.0 0.00 0.00 0.00 98 1015.6
20260505110254 48 114 0.0 0.0 0.00 0.00 0.00 98 1015.8
20260505101728 49 114 0.0 0.0 0.00 0.00 0.00 96 1015.5
20260505101224 49 114 0.0 0.0 0.00 0.00 0.00 96 1015.7
20260505100721 49 114 0.0 0.0 0.00 0.00 0.00 95 1015.6
20260505100218 49 114 0.0 0.0 0.00 0.00 0.00 95 1015.5
20260505095713 49 114 0.0 0.0 0.00 0.00 0.00 95 1015.4
20260505095211 49 114 0.0 0.0 0.00 0.00 0.00 94 1015.3
20260505094706 50 114 0.0 0.0 0.00 0.00 0.00 94 1015.4
20260505094203 50 114 0.0 0.0 0.00 0.00 0.00 94 1015.4
20260505093659 50 114 0.0 0.0 0.00 0.00 0.00 93 1015.3
20260505093157 50 114 0.0 0.0 0.00 0.00 0.00 92 1015.3
20260505092654 51 114 0.0 0.0 0.00 0.00 0.00 92 1015.1
20260505092152 51 114 0.0 0.0 0.00 0.00 0.00 92 1015.1
20260505091649 51 114 0.0 0.0 0.00 0.00 0.00 91 1015.1
20260505091147 51 114 0.0 0.0 0.00 0.00 0.00 91 1015.0
20260505090644 51 114 0.0 0.0 0.00 0.00 0.00 91 1014.9
20260505090143 51 114 0.0 0.0 0.00 0.00 0.00 90 1015.0
20260505085640 51 114 0.0 0.0 0.00 0.00 0.00 90 1014.8
20260505085138 52 114 0.0 0.0 0.00 0.00 0.00 89 1014.8
20260505084635 52 114 0.0 0.0 0.00 0.00 0.00 89 1014.8
20260505084133 52 114 0.0 0.0 0.00 0.00 0.00 89 1014.7
20260505083631 52 114 0.0 0.0 0.00 0.00 0.00 88 1014.7
20260505083127 52 114 0.0 0.0 0.00 0.00 0.00 88 1014.8
20260505082623 53 114 0.0 0.0 0.00 0.00 0.00 88 1014.7
20260505082120 53 114 0.0 0.0 0.00 0.00 0.00 88 1014.8
20260505081616 53 114 0.0 0.0 0.00 0.00 0.00 87 1014.5
20260505081114 53 114 0.0 0.0 0.00 0.00 0.00 87 1014.8
20260505080610 53 114 0.0 0.0 0.00 0.00 0.00 86 1014.7
20260505080106 53 114 0.0 0.0 0.00 0.00 0.00 85 1014.7
20260505075602 53 114 0.0 0.0 0.00 0.00 0.00 85 1014.7
20260505075059 54 114 0.0 0.0 0.00 0.00 0.00 83 1014.7
20260505074556 54 114 0.0 0.0 0.00 0.00 0.00 83 1014.6
20260505074053 54 114 0.0 0.0 0.00 0.00 0.00 82 1014.6
20260505073550 54 114 0.0 0.0 0.00 0.00 0.00 82 1015.0
20260505073049 55 114 0.0 0.0 0.00 0.00 0.00 82 1014.6
20260505072549 55 114 0.0 0.0 0.00 0.00 0.00 81 1014.5
20260505072047 55 114 0.0 0.0 0.00 0.00 0.00 81 1014.6
20260505071542 55 114 0.0 0.0 0.00 0.00 0.00 81 1014.6
20260505071040 55 114 0.0 0.0 0.00 0.00 0.00 80 1014.6
20260505070537 56 114 0.0 0.0 0.00 0.00 0.00 79 1014.5
20260505070033 56 114 0.0 0.0 0.00 0.00 0.00 78 1014.5
20260505065529 56 112 0.0 0.0 0.00 0.00 0.00 77 1014.5
20260505065026 57 112 0.0 0.0 0.00 0.00 0.00 77 1014.4
20260505064523 57 115 0.0 0.0 0.00 0.00 0.00 77 1014.4
20260505064021 57 114 0.0 0.0 0.00 0.00 0.00 76 1014.5
20260505063518 57 115 0.0 0.0 0.00 0.00 0.00 76 1014.5
20260505063014 57 117 0.0 0.0 0.00 0.00 0.00 75 1014.5
20260505062511 57 113 0.0 0.0 0.00 0.00 0.00 75 1014.3
20260505062008 57 108 0.0 0.0 0.00 0.00 0.00 75 1014.7
20260505061506 57 118 0.0 0.0 0.00 0.00 0.00 74 1014.7
20260505061003 57 125 0.0 0.0 0.00 0.00 0.00 74 1014.4
20260505060500 57 125 0.0 0.0 0.00 0.00 0.00 74 1014.7
20260505055956 57 125 0.0 0.0 0.00 0.00 0.00 74 1014.7
20260505055452 57 125 0.0 0.0 0.00 0.00 0.00 74 1014.7
20260505054949 57 125 0.0 0.0 0.00 0.00 0.00 73 1014.8
20260505054447 58 125 0.0 0.0 0.00 0.00 0.00 73 1014.6
20260505053945 58 125 0.0 0.0 0.00 0.00 0.00 72 1014.6
20260505053441 58 125 0.0 0.9 0.00 0.00 0.00 72 1014.8
20260505052938 58 125 0.0 0.0 0.00 0.00 0.00 72 1014.8
20260505052435 58 125 0.0 0.0 0.00 0.00 0.00 71 1014.8
20260505051932 58 125 0.0 0.9 0.00 0.00 0.00 71 1014.8
20260505051429 58 126 0.0 0.0 0.00 0.00 0.00 70 1015.0
20260505050927 58 126 0.0 0.0 0.00 0.00 0.00 70 1015.0
20260505050426 58 126 0.0 0.0 0.00 0.00 0.00 69 1014.9
20260505041353 56 126 0.0 0.0 0.00 0.00 0.00 71 1014.9
20260505040850 56 126 0.0 0.0 0.00 0.00 0.00 69 1014.8
20260505040348 57 126 0.0 0.0 0.00 0.00 0.00 70 1015.1
20260505035844 57 126 0.0 0.0 0.00 0.00 0.00 70 1014.7
20260505035340 57 126 0.0 0.0 0.00 0.00 0.00 70 1014.7
20260505034838 57 126 0.0 0.0 0.00 0.00 0.00 69 1014.8
20260505034334 57 126 0.0 0.0 0.00 0.00 0.00 68 1014.8
20260505033831 57 126 0.0 0.0 0.00 0.00 0.00 71 1014.8
20260505033328 57 126 0.0 0.0 0.00 0.00 0.00 68 1014.8
20260505032826 57 126 0.0 0.0 0.00 0.00 0.00 68 1015.0
20260505032322 57 126 0.0 0.0 0.00 0.00 0.00 69 1015.0
20260505031820 57 126 0.0 0.0 0.00 0.00 0.00 70 1014.9
20260505031316 57 126 0.0 0.0 0.00 0.00 0.00 68 1015.1
20260505030813 58 126 0.0 0.0 0.00 0.00 0.00 68 1014.8
20260505030310 58 126 0.0 0.0 0.00 0.00 0.00 68 1014.8
20260505025805 58 126 0.0 0.0 0.00 0.00 0.00 69 1014.6
20260505025304 59 126 0.0 0.0 0.00 0.00 0.00 65 1014.8
20260505024801 59 126 0.0 0.0 0.00 0.00 0.00 68 1014.7
20260505024258 60 126 0.0 0.0 0.00 0.00 0.00 62 1015.0
20260505023755 59 126 0.0 0.0 0.00 0.00 0.00 62 1014.8
20260505023252 59 126 0.0 0.0 0.00 0.00 0.00 64 1015.0
20260505022749 59 126 0.0 0.0 0.00 0.00 0.00 66 1014.7
20260505022246 59 126 0.0 0.0 0.00 0.00 0.00 66 1014.7
20260505021743 59 126 0.0 0.0 0.00 0.00 0.00 64 1014.6
20260505021240 59 126 0.0 0.0 0.00 0.00 0.00 66 1014.7
20260505020736 59 126 0.0 0.0 0.00 0.00 0.00 65 1014.5
20260505020231 59 126 0.0 0.0 0.00 0.00 0.00 66 1014.6
20260505015729 59 126 0.0 0.0 0.00 0.00 0.00 66 1014.6
20260505015226 59 126 0.0 0.0 0.00 0.00 0.00 64 1014.7
20260505014723 59 126 0.0 0.0 0.00 0.00 0.00 64 1014.3
20260505014220 60 126 0.0 0.0 0.00 0.00 0.00 66 1014.5
20260505013716 60 126 0.0 0.0 0.00 0.00 0.00 60 1014.4
20260505013214 60 126 0.0 0.0 0.00 0.00 0.00 60 1014.3
20260505012712 61 126 0.0 0.0 0.00 0.00 0.00 59 1014.1
20260505012209 61 126 0.0 0.0 0.00 0.00 0.00 60 1014.3
20260505011704 62 126 0.0 0.0 0.00 0.00 0.00 61 1014.2
20260505011202 62 126 0.0 0.0 0.00 0.00 0.00 58 1014.1
20260505010657 63 126 0.0 0.0 0.00 0.00 0.00 58 1014.1
20260505010154 63 126 0.0 0.0 0.00 0.00 0.00 55 1014.2
20260505005650 64 126 0.0 0.0 0.00 0.00 0.00 54 1013.8
20260505005147 64 126 0.0 0.0 0.00 0.00 0.00 52 1013.9
20260505004644 65 126 0.0 0.0 0.00 0.00 0.00 49 1013.5
20260505004141 65 126 0.0 0.0 0.00 0.00 0.00 49 1013.7
20260505003638 66 126 0.0 0.0 0.00 0.00 0.00 48 1013.6
20260505003136 67 126 0.0 0.0 0.00 0.00 0.00 47 1013.7
20260505002631 67 126 0.0 0.0 0.00 0.00 0.00 46 1013.6
20260505002130 68 126 0.0 0.0 0.00 0.00 0.00 46 1013.5
20260505001626 68 126 0.0 0.0 0.00 0.00 0.00 45 1013.5
20260505001124 69 126 0.0 0.0 0.00 0.00 0.00 44 1013.4
20260505000621 69 126 0.0 0.0 0.00 0.00 0.00 43 1013.3
20260505000119 70 126 0.0 0.0 0.00 0.00 0.00 42 1013.5
20260504235615 70 126 0.0 0.0 0.00 0.00 0.00 41 1013.6
20260504235112 71 126 0.0 0.0 0.00 0.00 0.00 41 1013.3
20260504234609 71 126 0.0 0.0 0.00 0.00 0.00 40 1013.2
20260504234106 72 126 0.0 0.0 0.00 0.00 0.00 39 1013.2
20260504233601 73 126 0.0 0.0 0.00 0.00 0.00 39 1013.0
20260504233058 73 126 0.0 0.0 0.00 0.00 0.00 38 1013.2
20260504232555 74 126 0.0 0.0 0.00 0.00 0.00 37 1012.9
20260504232053 74 127 0.0 0.9 0.00 0.00 0.00 36 1012.8
20260504231549 74 131 0.9 0.9 0.00 0.00 0.00 36 1013.2
20260504231045 74 136 0.9 0.9 0.00 0.00 0.00 36 1013.0
20260504230541 75 124 0.0 0.9 0.00 0.00 0.00 35 1012.9
20260504230041 75 120 0.0 0.9 0.00 0.00 0.00 35 1012.7
20260504225537 75 120 0.9 0.9 0.00 0.00 0.00 36 1012.8
20260504225035 76 116 0.0 0.0 0.00 0.00 0.00 35 1012.9
20260504224531 76 136 0.9 0.9 0.00 0.00 0.00 34 1013.0
20260504224028 76 137 0.9 1.7 0.00 0.00 0.00 34 1012.9
20260504223525 76 131 0.0 1.7 0.00 0.00 0.00 33 1012.8
20260504223021 77 132 0.9 1.7 0.00 0.00 0.00 32 1012.9
20260504222518 77 121 0.0 0.9 0.00 0.00 0.00 32 1013.2
20260504222015 77 129 0.0 0.9 0.00 0.00 0.00 32 1013.0
20260504221513 77 128 0.0 0.9 0.00 0.00 0.00 31 1013.0
20260504221009 77 131 0.0 1.7 0.00 0.00 0.00 30 1012.8
20260504220506 77 140 0.9 1.7 0.00 0.00 0.00 31 1012.8
20260504220003 77 126 0.9 4.3 0.00 0.00 0.00 32 1012.9
20260504215459 77 2 4.3 5.2 0.00 0.00 0.00 31 1013.3
20260504214956 77 123 0.0 0.9 0.00 0.00 0.00 33 1012.9
20260504214452 78 121 1.7 1.7 0.00 0.00 0.00 32 1013.0
20260504213949 78 123 0.9 1.7 0.00 0.00 0.00 31 1012.7
20260504213445 78 101 0.0 0.9 0.00 0.00 0.00 31 1012.9
20260504212943 78 138 0.9 2.6 0.00 0.00 0.00 32 1013.0
20260504212438 78 131 0.0 0.9 0.00 0.00 0.00 32 1013.2
20260504211936 78 125 0.9 0.9 0.00 0.00 0.00 32 1012.9
20260504211432 78 137 0.9 2.6 0.00 0.00 0.00 34 1012.9
20260504210930 78 123 0.9 2.6 0.00 0.00 0.00 31 1012.9
20260504210427 78 125 0.0 0.9 0.00 0.00 0.00 31 1012.9
20260504205924 78 124 0.0 0.0 0.00 0.00 0.00 30 1012.9
20260504205421 78 123 0.0 0.9 0.00 0.00 0.00 31 1012.9
20260504204919 79 96 0.9 1.7 0.00 0.00 0.00 30 1013.3
20260504204418 79 108 1.7 1.7 0.00 0.00 0.00 30 1013.3
20260504203917 79 112 0.9 0.9 0.00 0.00 0.00 29 1013.4
20260504203414 79 125 0.0 0.9 0.00 0.00 0.00 31 1013.0
20260504202909 80 130 0.9 1.7 0.00 0.00 0.00 33 1013.3
20260504202406 79 24 2.6 2.6 0.00 0.00 0.00 31 1013.5
20260504201903 80 126 0.9 2.6 0.00 0.00 0.00 31 1013.5
20260504201401 80 148 1.7 1.7 0.00 0.00 0.00 29 1013.7
20260504200857 80 135 0.9 0.9 0.00 0.00 0.00 31 1013.7
20260504200354 80 130 1.7 1.7 0.00 0.00 0.00 32 1014.0
20260504195851 80 132 0.9 1.7 0.00 0.00 0.00 33 1013.8
20260504195346 79 153 0.9 1.7 0.00 0.00 0.00 34 1013.7
20260504194843 78 68 0.9 1.7 0.00 0.00 0.00 30 1013.9
20260504194339 79 276 2.6 6.1 0.00 0.00 0.00 31 1013.9
20260504193835 78 140 0.9 1.7 0.00 0.00 0.00 31 1014.0
20260504193333 80 131 0.9 1.7 0.00 0.00 0.00 34 1013.8
20260504192831 80 132 0.9 0.9 0.00 0.00 0.00 33 1014.1
20260504192329 81 133 0.0 0.9 0.00 0.00 0.00 31 1014.1
20260504191827 79 134 0.9 1.7 0.00 0.00 0.00 32 1014.3
20260504191325 79 102 0.0 1.7 0.00 0.00 0.00 33 1014.4
20260504190820 78 127 0.0 0.9 0.00 0.00 0.00 34 1014.5
20260504190316 79 121 0.0 1.7 0.00 0.00 0.00 33 1014.4
20260504185813 79 162 0.9 1.7 0.00 0.00 0.00 30 1014.6
20260504185310 78 127 0.9 1.7 0.00 0.00 0.00 36 1014.5
20260504184806 78 101 0.0 4.3 0.00 0.00 0.00 34 1014.6
20260504184302 78 137 0.9 1.7 0.00 0.00 0.00 33 1014.8
20260504183758 78 111 0.9 1.7 0.00 0.00 0.00 29 1014.9
20260504183255 78 149 0.9 0.9 0.00 0.00 0.00 28 1014.9
20260504182753 76 129 0.0 1.7 0.00 0.00 0.00 35 1014.7
20260504182250 76 104 0.9 1.7 0.00 0.00 0.00 35 1015.0
20260504181747 77 100 1.7 1.7 0.00 0.00 0.00 32 1014.8
20260504181244 79 108 0.9 2.6 0.00 0.00 0.00 29 1015.2
20260504180744 77 111 0.0 0.9 0.00 0.00 0.00 30 1015.2
20260504180242 76 100 0.9 1.7 0.00 0.00 0.00 34 1015.3
20260504175739 76 127 0.9 0.9 0.00 0.00 0.00 34 1015.3
20260504175235 77 129 0.0 0.9 0.00 0.00 0.00 33 1015.4
20260504174733 75 125 0.9 0.9 0.00 0.00 0.00 34 1015.2
20260504174231 75 110 0.9 4.3 0.00 0.00 0.00 35 1015.5
20260504173727 75 181 0.9 1.7 0.00 0.00 0.00 36 1015.2
20260504173224 75 138 0.9 0.9 0.00 0.00 0.00 36 1015.5
20260504172721 75 128 0.0 0.9 0.00 0.00 0.00 35 1015.4
20260504172217 76 133 0.9 0.9 0.00 0.00 0.00 37 1015.5
20260504171714 74 128 0.0 1.7 0.00 0.00 0.00 44 1015.4
20260504171211 73 358 2.6 2.6 0.00 0.00 0.00 39 1015.7
20260504170708 75 114 0.0 0.9 0.00 0.00 0.00 37 1015.7
20260504170206 75 118 0.0 0.9 0.00 0.00 0.00 41 1015.4
20260504160124 70 69 2.6 2.6 0.00 0.00 0.00 46 1016.6